Miami, FL

9:51 AM EDT on May 28, 2017 (GMT -0400)
Miami International

Weather History for KMIA - July, 2012

Change the Weather History Date:

Tuesday, July 3, 2012

  Actual Average Record
Temperature  
Mean Temperature 85 °F 84 °F  
Max Temperature 91 °F 90 °F 98 °F (1998)
Min Temperature 79 °F 77 °F 68 °F (1938)
Degree Days  
Heating Degree Days 0 0  
Month to date heating degree days 0 0  
Since 1 June heating degree days 0 0  
Since 1 July heating degree days 0 0  
Cooling Degree Days 20 19  
Month to date cooling degree days 58 56  
Year to date cooling degree days 2132 1944  
Since 1 June cooling degree days 591 588  
Growing Degree Days 35 (Base 50)    
Moisture  
Dew Point 73 °F    
Average Humidity 63    
Maximum Humidity 79    
Minimum Humidity 47    
Precipitation  
Precipitation 0.00 in 0.26 in 4.51 in (1952)
Month to date precipitation 0.00 0.80  
Year to date precipitation 43.64 25.82  
Snow  
Snow 0.00 in - - ()
Month to date snowfall 0.0  
Since 1 June snowfall 0.0  
Since 1 July snowfall 0.0  
Snow Depth 0.00 in    
Sea Level Pressure  
Sea Level Pressure 30.06 in    
Wind  
Wind Speed 6 mph (East)    
Max Wind Speed 15 mph    
Max Gust Speed 25 mph    
Visibility 10 miles    
Events      
T = Trace of Precipitation, MM = Missing Value Source: NWS Daily Summary

Daily Weather History Graph

Daily Weather History Graph

Search for Another Location

Airport or City:

Trip Planner

Search our weather history database for the weather conditions in past years. The results will help you decide how hot, cold, wet, or windy it might be!

Date:

Astronomy

Jul. 03, 2012 Rise Set
Actual Time 6:34 AM EDT 8:16 PM EDT
Civil Twilight 6:08 AM EDT 8:42 PM EDT
Nautical Twilight 5:37 AM EDT 9:13 PM EDT
Astronomical Twilight 5:04 AM EDT 9:46 PM EDT
Moon 8:16 PM EDT (7/3) 6:21 AM EDT (7/3)
Length of Visible Light 14h 34m
Length of Day
13h 42m
Full, 100% of the Moon is Illuminated
Jul 3
Full
Jul 3
Full
Jul 10
Last Quarter
Jul 19
New
Jul 26
First Quarter

Hourly Weather History & Observations

Time (EDT) Temp. Heat Index Dew Point Humidity Pressure Visibility Wind Dir Wind Speed Gust Speed Precip Events Conditions
12:53 AM 81.0 °F 85.2 °F 72.0 °F 74% 30.08 in 10.0 mi ESE 4.6 mph - N/A   Scattered Clouds
1:53 AM 81.0 °F 85.2 °F 72.0 °F 74% 30.06 in 9.0 mi Calm Calm - N/A   Scattered Clouds
2:53 AM 82.0 °F 86.7 °F 72.0 °F 71% 30.04 in 9.0 mi NNW 3.5 mph - N/A   Mostly Cloudy
3:53 AM 81.0 °F 85.8 °F 73.0 °F 77% 30.03 in 10.0 mi NNW 3.5 mph - N/A   Clear
4:53 AM 81.0 °F 85.8 °F 73.0 °F 77% 30.04 in 10.0 mi Calm Calm - N/A   Mostly Cloudy
5:49 AM 80.6 °F 85.4 °F 73.4 °F 79% 30.04 in 9.0 mi NNW 3.5 mph - N/A   Scattered Clouds
5:53 AM 81.0 °F 85.8 °F 73.0 °F 77% 30.04 in 9.0 mi NW 3.5 mph - N/A   Scattered Clouds
6:53 AM 80.1 °F 84.5 °F 73.9 °F 81% 30.05 in 10.0 mi Calm Calm - N/A   Scattered Clouds
7:53 AM 82.0 °F 87.4 °F 73.0 °F 74% 30.07 in 10.0 mi Calm Calm - N/A   Scattered Clouds
8:53 AM 84.9 °F 92.1 °F 73.9 °F 69% 30.07 in 10.0 mi ENE 5.8 mph - N/A   Scattered Clouds
9:53 AM 84.9 °F 92.1 °F 73.9 °F 69% 30.07 in 10.0 mi Calm Calm - N/A   Scattered Clouds
10:53 AM 87.1 °F 94.5 °F 73.0 °F 63% 30.09 in 10.0 mi SE 4.6 mph - N/A   Scattered Clouds
11:53 AM 89.1 °F 97.0 °F 73.0 °F 59% 30.09 in 10.0 mi ESE 6.9 mph - N/A   Scattered Clouds
12:53 PM 90.0 °F 97.9 °F 73.0 °F 57% 30.09 in 10.0 mi East 9.2 mph 16.1 mph N/A   Scattered Clouds
1:53 PM 91.0 °F 95.2 °F 68.0 °F 47% 30.07 in 10.0 mi ESE 10.4 mph - N/A   Scattered Clouds
2:53 PM 90.0 °F 96.9 °F 72.0 °F 55% 30.06 in 10.0 mi ESE 9.2 mph - N/A   Scattered Clouds
3:53 PM 89.1 °F 98.0 °F 73.9 °F 61% 30.05 in 10.0 mi East 8.1 mph - N/A   Scattered Clouds
4:53 PM 89.1 °F 97.0 °F 73.0 °F 59% 30.04 in 10.0 mi East 8.1 mph - N/A   Scattered Clouds
5:53 PM 87.1 °F 95.4 °F 73.9 °F 65% 30.03 in 10.0 mi SE 12.7 mph - N/A   Scattered Clouds
6:53 PM 86.0 °F 93.0 °F 73.0 °F 65% 30.02 in 10.0 mi ESE 5.8 mph - N/A   Scattered Clouds
7:53 PM 84.9 °F 90.7 °F 72.0 °F 65% 30.02 in 10.0 mi East 9.2 mph - N/A   Scattered Clouds
8:53 PM 84.0 °F 90.2 °F 73.0 °F 69% 30.04 in 10.0 mi ESE 12.7 mph - N/A   Scattered Clouds
9:53 PM 84.0 °F 89.6 °F 72.0 °F 67% 30.05 in 10.0 mi ESE 10.4 mph - N/A   Scattered Clouds
10:53 PM 82.9 °F 88.8 °F 73.0 °F 72% 30.07 in 10.0 mi ESE 6.9 mph - N/A   Scattered Clouds
11:53 PM 82.9 °F 89.4 °F 73.9 °F 74% 30.08 in 10.0 mi SE 4.6 mph - N/A   Scattered Clouds